contact:dominique.lefevre@mio.osupytheas.fr, maurice.libes@osupytheas.fr, didier.mallarino@osupytheas.fr
Project:EMSO http://www.emso-fr.org/EMSO-France
Depth: 2436.0 m
Title:EMSO Ligure Ouest : Data MII capteur MICROCAT
DateTime_Computer,Latitude,Longitude,Temperature,Conductivity,Pressure,DateTime_Instrument
DateTime_Computer,Latitude,Longitude,degC,S m-1,dbar,DateTime_Instrument
2022-01-14T00:00:23Z,42.805,6.029,13.3000,4.60024,2470.366,2022-1-14T02:01:54Z
2022-01-14T00:03:26Z,42.805,6.029,13.2996,4.60022,2470.343,2022-1-14T02:04:57Z
2022-01-14T00:06:29Z,42.805,6.029,13.2995,4.60022,2470.343,2022-1-14T02:08:00Z
2022-01-14T00:09:32Z,42.805,6.029,13.2994,4.60021,2470.366,2022-1-14T02:11:03Z
2022-01-14T00:12:35Z,42.805,6.029,13.2997,4.60021,2470.357,2022-1-14T02:14:06Z
2022-01-14T00:15:38Z,42.805,6.029,13.2995,4.60021,2470.334,2022-1-14T02:17:09Z
2022-01-14T00:18:41Z,42.805,6.029,13.2998,4.60021,2470.366,2022-1-14T02:20:12Z
2022-01-14T00:21:45Z,42.805,6.029,13.2993,4.60022,2470.343,2022-1-14T02:23:16Z
2022-01-14T00:24:48Z,42.805,6.029,13.2994,4.60021,2470.343,2022-1-14T02:26:19Z
2022-01-14T00:27:51Z,42.805,6.029,13.2997,4.60021,2470.366,2022-1-14T02:29:22Z
2022-01-14T00:30:54Z,42.805,6.029,13.2994,4.60021,2470.38,2022-1-14T02:32:25Z
2022-01-14T00:33:57Z,42.805,6.029,13.2998,4.60021,2470.38,2022-1-14T02:35:28Z
2022-01-14T00:37:00Z,42.805,6.029,13.2999,4.60021,2470.343,2022-1-14T02:38:31Z
2022-01-14T00:40:03Z,42.805,6.029,13.2999,4.60022,2470.343,2022-1-14T02:41:34Z
2022-01-14T00:43:06Z,42.805,6.029,13.2997,4.60022,2470.404,2022-1-14T02:44:37Z
2022-01-14T00:46:10Z,42.805,6.029,13.2998,4.60021,2470.38,2022-1-14T02:47:41Z
2022-01-14T00:49:13Z,42.805,6.029,13.2996,4.60022,2470.357,2022-1-14T02:50:44Z
2022-01-14T00:52:16Z,42.805,6.029,13.2997,4.60021,2470.334,2022-1-14T02:53:47Z
2022-01-14T00:55:19Z,42.805,6.029,13.2995,4.60024,2470.38,2022-1-14T02:56:50Z
2022-01-14T00:58:22Z,42.805,6.029,13.2998,4.60021,2470.38,2022-1-14T02:59:53Z
2022-01-14T01:01:25Z,42.805,6.029,13.3000,4.60021,2470.38,2022-1-14T03:02:56Z
2022-01-14T01:04:28Z,42.805,6.029,13.2996,4.60021,2470.343,2022-1-14T03:05:59Z
2022-01-14T01:07:31Z,42.805,6.029,13.2998,4.60022,2470.357,2022-1-14T03:09:02Z
2022-01-14T01:10:35Z,42.805,6.029,13.2996,4.60021,2470.366,2022-1-14T03:12:05Z
2022-01-14T01:13:38Z,42.805,6.029,13.2999,4.60021,2470.38,2022-1-14T03:15:09Z
2022-01-14T01:16:41Z,42.805,6.029,13.2996,4.60021,2470.38,2022-1-14T03:18:12Z
2022-01-14T01:19:44Z,42.805,6.029,13.2996,4.60021,2470.404,2022-1-14T03:21:15Z
2022-01-14T01:22:47Z,42.805,6.029,13.3001,4.60021,2470.366,2022-1-14T03:24:18Z
2022-01-14T01:25:50Z,42.805,6.029,13.3000,4.60021,2470.404,2022-1-14T03:27:21Z
2022-01-14T01:28:53Z,42.805,6.029,13.3000,4.60022,2470.38,2022-1-14T03:30:24Z
2022-01-14T01:31:56Z,42.805,6.029,13.2995,4.60023,2470.343,2022-1-14T03:33:27Z
2022-01-14T01:35:00Z,42.805,6.029,13.2993,4.60021,2470.39,2022-1-14T03:36:30Z
2022-01-14T01:38:03Z,42.805,6.029,13.2998,4.60021,2470.39,2022-1-14T03:39:34Z
2022-01-14T01:41:06Z,42.805,6.029,13.2995,4.60021,2470.38,2022-1-14T03:42:37Z
2022-01-14T01:44:09Z,42.805,6.029,13.3000,4.60021,2470.343,2022-1-14T03:45:40Z
2022-01-14T01:47:12Z,42.805,6.029,13.2999,4.60024,2470.366,2022-1-14T03:48:43Z
2022-01-14T01:50:15Z,42.805,6.029,13.2997,4.60021,2470.38,2022-1-14T03:51:46Z
2022-01-14T01:53:18Z,42.805,6.029,13.3000,4.60021,2470.38,2022-1-14T03:54:49Z
2022-01-14T01:56:21Z,42.805,6.029,13.2993,4.60021,2470.413,2022-1-14T03:57:52Z
2022-01-14T01:59:25Z,42.805,6.029,13.2996,4.60021,2470.404,2022-1-14T04:00:55Z
2022-01-14T02:02:28Z,42.805,6.029,13.2996,4.60021,2470.366,2022-1-14T04:03:59Z
2022-01-14T02:05:31Z,42.805,6.029,13.2998,4.60021,2470.39,2022-1-14T04:07:02Z
2022-01-14T02:08:34Z,42.805,6.029,13.2997,4.60021,2470.404,2022-1-14T04:10:05Z
2022-01-14T02:11:37Z,42.805,6.029,13.2996,4.60021,2470.427,2022-1-14T04:13:08Z
2022-01-14T02:14:40Z,42.805,6.029,13.2998,4.60021,2470.413,2022-1-14T04:16:11Z
2022-01-14T02:17:43Z,42.805,6.029,13.2996,4.60021,2470.366,2022-1-14T04:19:14Z
2022-01-14T02:20:46Z,42.805,6.029,13.2996,4.60021,2470.38,2022-1-14T04:22:17Z
2022-01-14T02:23:50Z,42.805,6.029,13.2996,4.60021,2470.437,2022-1-14T04:25:20Z
2022-01-14T02:26:53Z,42.805,6.029,13.2993,4.60021,2470.404,2022-1-14T04:28:24Z
2022-01-14T02:29:56Z,42.805,6.029,13.2995,4.60021,2470.39,2022-1-14T04:31:27Z
2022-01-14T02:32:59Z,42.805,6.029,13.2997,4.60022,2470.39,2022-1-14T04:34:30Z
2022-01-14T02:36:02Z,42.805,6.029,13.2996,4.60021,2470.39,2022-1-14T04:37:33Z
2022-01-14T02:39:05Z,42.805,6.029,13.2998,4.60021,2470.39,2022-1-14T04:40:36Z
2022-01-14T02:42:08Z,42.805,6.029,13.2994,4.60021,2470.39,2022-1-14T04:43:39Z
2022-01-14T02:45:11Z,42.805,6.029,13.3000,4.60021,2470.39,2022-1-14T04:46:42Z
2022-01-14T02:48:15Z,42.805,6.029,13.2997,4.60022,2470.427,2022-1-14T04:49:45Z
2022-01-14T02:51:18Z,42.805,6.029,13.2997,4.60021,2470.39,2022-1-14T04:52:49Z
2022-01-14T02:54:21Z,42.805,6.029,13.2997,4.60021,2470.39,2022-1-14T04:55:52Z
2022-01-14T02:57:24Z,42.805,6.029,13.2993,4.60021,2470.39,2022-1-14T04:58:55Z
2022-01-14T03:00:27Z,42.805,6.029,13.2999,4.60021,2470.413,2022-1-14T05:01:58Z
2022-01-14T03:03:30Z,42.805,6.029,13.2993,4.60022,2470.45,2022-1-14T05:05:01Z
2022-01-14T03:06:33Z,42.805,6.029,13.2998,4.60021,2470.404,2022-1-14T05:08:04Z
2022-01-14T03:09:36Z,42.805,6.029,13.2997,4.60021,2470.413,2022-1-14T05:11:07Z
2022-01-14T03:12:40Z,42.805,6.029,13.2996,4.60021,2470.39,2022-1-14T05:14:10Z
2022-01-14T03:15:43Z,42.805,6.029,13.2994,4.60021,2470.413,2022-1-14T05:17:14Z
2022-01-14T03:18:46Z,42.805,6.029,13.2999,4.60021,2470.413,2022-1-14T05:20:17Z
2022-01-14T03:21:49Z,42.805,6.029,13.3000,4.60021,2470.413,2022-1-14T05:23:20Z
2022-01-14T03:24:52Z,42.805,6.029,13.3000,4.60021,2470.427,2022-1-14T05:26:23Z
2022-01-14T03:27:55Z,42.805,6.029,13.2996,4.60021,2470.39,2022-1-14T05:29:26Z
2022-01-14T03:30:58Z,42.805,6.029,13.3000,4.60021,2470.39,2022-1-14T05:32:29Z
2022-01-14T03:34:01Z,42.805,6.029,13.3000,4.60022,2470.39,2022-1-14T05:35:32Z
2022-01-14T03:37:05Z,42.805,6.029,13.2998,4.60021,2470.413,2022-1-14T05:38:35Z
2022-01-14T03:40:08Z,42.805,6.029,13.2999,4.60022,2470.427,2022-1-14T05:41:39Z
2022-01-14T03:43:11Z,42.805,6.029,13.2997,4.60023,2470.427,2022-1-14T05:44:42Z
2022-01-14T03:46:14Z,42.805,6.029,13.2997,4.60023,2470.413,2022-1-14T05:47:45Z
2022-01-14T03:49:17Z,42.805,6.029,13.2996,4.60022,2470.39,2022-1-14T05:50:48Z
2022-01-14T03:52:20Z,42.805,6.029,13.2997,4.60022,2470.427,2022-1-14T05:53:51Z
2022-01-14T03:55:23Z,42.805,6.029,13.3002,4.60022,2470.413,2022-1-14T05:56:54Z
2022-01-14T03:58:26Z,42.805,6.029,13.3000,4.60024,2470.404,2022-1-14T05:59:57Z
2022-01-14T04:01:30Z,42.805,6.029,13.2999,4.60022,2470.437,2022-1-14T06:03:00Z
2022-01-14T04:04:33Z,42.805,6.029,13.3002,4.60024,2470.413,2022-1-14T06:06:04Z
2022-01-14T04:07:36Z,42.805,6.029,13.2996,4.60023,2470.427,2022-1-14T06:09:07Z
2022-01-14T04:10:39Z,42.805,6.029,13.2995,4.60024,2470.427,2022-1-14T06:12:10Z
2022-01-14T04:13:42Z,42.805,6.029,13.2996,4.60022,2470.427,2022-1-14T06:15:13Z
2022-01-14T04:16:45Z,42.805,6.029,13.2996,4.60022,2470.404,2022-1-14T06:18:16Z
2022-01-14T04:19:48Z,42.805,6.029,13.3000,4.60022,2470.404,2022-1-14T06:21:19Z
2022-01-14T04:22:51Z,42.805,6.029,13.2998,4.60023,2470.413,2022-1-14T06:24:22Z
2022-01-14T04:25:54Z,42.805,6.029,13.2995,4.60023,2470.45,2022-1-14T06:27:25Z
2022-01-14T04:28:58Z,42.805,6.029,13.2996,4.60022,2470.413,2022-1-14T06:30:28Z
2022-01-14T04:32:01Z,42.805,6.029,13.3000,4.60022,2470.437,2022-1-14T06:33:32Z
2022-01-14T04:35:04Z,42.805,6.029,13.2999,4.60024,2470.437,2022-1-14T06:36:35Z
2022-01-14T04:38:07Z,42.805,6.029,13.2997,4.60023,2470.437,2022-1-14T06:39:38Z
2022-01-14T04:41:10Z,42.805,6.029,13.2999,4.60023,2470.437,2022-1-14T06:42:41Z
2022-01-14T04:44:13Z,42.805,6.029,13.2998,4.60023,2470.45,2022-1-14T06:45:44Z
2022-01-14T04:47:16Z,42.805,6.029,13.3000,4.60023,2470.427,2022-1-14T06:48:47Z
2022-01-14T04:50:19Z,42.805,6.029,13.2997,4.60024,2470.45,2022-1-14T06:51:50Z
2022-01-14T04:53:23Z,42.805,6.029,13.2999,4.60026,2470.45,2022-1-14T06:54:53Z
2022-01-14T04:56:26Z,42.805,6.029,13.2997,4.60024,2470.413,2022-1-14T06:57:57Z
2022-01-14T04:59:29Z,42.805,6.029,13.3000,4.60023,2470.437,2022-1-14T07:01:00Z
2022-01-14T05:02:32Z,42.805,6.029,13.3000,4.60024,2470.427,2022-1-14T07:04:03Z
2022-01-14T05:05:35Z,42.805,6.029,13.2998,4.60024,2470.45,2022-1-14T07:07:06Z
2022-01-14T05:08:38Z,42.805,6.029,13.2999,4.60024,2470.413,2022-1-14T07:10:09Z
2022-01-14T05:11:41Z,42.805,6.029,13.3002,4.60025,2470.437,2022-1-14T07:13:12Z
2022-01-14T05:14:44Z,42.805,6.029,13.2999,4.60025,2470.39,2022-1-14T07:16:15Z
2022-01-14T05:17:48Z,42.805,6.029,13.2996,4.60024,2470.413,2022-1-14T07:19:18Z
2022-01-14T05:20:51Z,42.805,6.029,13.2996,4.60025,2470.427,2022-1-14T07:22:22Z
2022-01-14T05:23:54Z,42.805,6.029,13.2998,4.60024,2470.413,2022-1-14T07:25:25Z
2022-01-14T05:26:57Z,42.805,6.029,13.2997,4.60024,2470.413,2022-1-14T07:28:28Z
2022-01-14T05:30:00Z,42.805,6.029,13.2998,4.60024,2470.366,2022-1-14T07:31:31Z
2022-01-14T05:33:03Z,42.805,6.029,13.2999,4.60023,2470.413,2022-1-14T07:34:34Z
2022-01-14T05:36:06Z,42.805,6.029,13.2998,4.60024,2470.413,2022-1-14T07:37:37Z
2022-01-14T05:39:09Z,42.805,6.029,13.2998,4.60023,2470.413,2022-1-14T07:40:40Z
2022-01-14T05:42:13Z,42.805,6.029,13.3000,4.60024,2470.366,2022-1-14T07:43:43Z
2022-01-14T05:45:16Z,42.805,6.029,13.2999,4.60024,2470.39,2022-1-14T07:46:47Z
2022-01-14T05:48:19Z,42.805,6.029,13.3003,4.60024,2470.39,2022-1-14T07:49:50Z
2022-01-14T05:51:22Z,42.805,6.029,13.2998,4.60024,2470.39,2022-1-14T07:52:53Z
2022-01-14T05:54:25Z,42.805,6.029,13.2998,4.60025,2470.427,2022-1-14T07:55:56Z
2022-01-14T05:57:28Z,42.805,6.029,13.2997,4.60024,2470.39,2022-1-14T07:58:59Z
2022-01-14T06:00:31Z,42.805,6.029,13.2996,4.60024,2470.39,2022-1-14T08:02:02Z
2022-01-14T06:03:34Z,42.805,6.029,13.3000,4.60024,2470.413,2022-1-14T08:05:05Z
2022-01-14T06:06:37Z,42.805,6.029,13.2998,4.60024,2470.413,2022-1-14T08:08:08Z
2022-01-14T06:09:41Z,42.805,6.029,13.3000,4.60024,2470.39,2022-1-14T08:11:11Z
2022-01-14T06:12:44Z,42.805,6.029,13.3000,4.60024,2470.39,2022-1-14T08:14:15Z
2022-01-14T06:15:47Z,42.805,6.029,13.2998,4.60025,2470.413,2022-1-14T08:17:18Z
2022-01-14T06:18:50Z,42.805,6.029,13.2998,4.60024,2470.38,2022-1-14T08:20:21Z
2022-01-14T06:21:53Z,42.805,6.029,13.3002,4.60025,2470.39,2022-1-14T08:23:24Z
2022-01-14T06:24:56Z,42.805,6.029,13.2999,4.60023,2470.404,2022-1-14T08:26:27Z
2022-01-14T06:27:59Z,42.805,6.029,13.2998,4.60025,2470.427,2022-1-14T08:29:30Z
2022-01-14T06:31:02Z,42.805,6.029,13.3000,4.60024,2470.39,2022-1-14T08:32:33Z
2022-01-14T06:34:06Z,42.805,6.029,13.2996,4.60024,2470.427,2022-1-14T08:35:36Z
2022-01-14T06:37:09Z,42.805,6.029,13.2994,4.60024,2470.366,2022-1-14T08:38:40Z
2022-01-14T06:40:12Z,42.805,6.029,13.3000,4.60023,2470.366,2022-1-14T08:41:43Z
2022-01-14T06:43:15Z,42.805,6.029,13.3000,4.60024,2470.413,2022-1-14T08:44:46Z
2022-01-14T06:46:18Z,42.805,6.029,13.3000,4.60024,2470.38,2022-1-14T08:47:49Z
2022-01-14T06:49:21Z,42.805,6.029,13.3001,4.60024,2470.404,2022-1-14T08:50:52Z
2022-01-14T06:52:24Z,42.805,6.029,13.3002,4.60028,2470.404,2022-1-14T08:53:55Z
2022-01-14T06:55:27Z,42.805,6.029,13.2995,4.60024,2470.366,2022-1-14T08:56:58Z
2022-01-14T06:58:31Z,42.805,6.029,13.2999,4.60024,2470.38,2022-1-14T09:00:01Z
2022-01-14T07:01:34Z,42.805,6.029,13.2998,4.60024,2470.404,2022-1-14T09:03:05Z
2022-01-14T07:04:37Z,42.805,6.029,13.3001,4.60025,2470.427,2022-1-14T09:06:08Z
2022-01-14T07:07:40Z,42.805,6.029,13.3000,4.60024,2470.404,2022-1-14T09:09:11Z
2022-01-14T07:10:43Z,42.805,6.029,13.2997,4.60024,2470.413,2022-1-14T09:12:14Z
2022-01-14T07:13:46Z,42.805,6.029,13.3000,4.60024,2470.413,2022-1-14T09:15:17Z
2022-01-14T07:16:49Z,42.805,6.029,13.2998,4.60024,2470.427,2022-1-14T09:18:20Z
2022-01-14T07:19:52Z,42.805,6.029,13.2997,4.60024,2470.39,2022-1-14T09:21:23Z
2022-01-14T07:22:56Z,42.805,6.029,13.2996,4.60024,2470.39,2022-1-14T09:24:26Z
2022-01-14T07:25:59Z,42.805,6.029,13.2998,4.60026,2470.39,2022-1-14T09:27:30Z
2022-01-14T07:29:02Z,42.805,6.029,13.2998,4.60025,2470.39,2022-1-14T09:30:33Z
2022-01-14T07:32:05Z,42.805,6.029,13.3000,4.60024,2470.404,2022-1-14T09:33:36Z
2022-01-14T07:35:08Z,42.805,6.029,13.3002,4.60025,2470.366,2022-1-14T09:36:39Z
2022-01-14T07:38:11Z,42.805,6.029,13.2999,4.60026,2470.366,2022-1-14T09:39:42Z
2022-01-14T07:41:14Z,42.805,6.029,13.3000,4.60025,2470.39,2022-1-14T09:42:45Z
2022-01-14T07:44:17Z,42.805,6.029,13.2998,4.60025,2470.39,2022-1-14T09:45:48Z
2022-01-14T07:47:21Z,42.805,6.029,13.2998,4.60025,2470.366,2022-1-14T09:48:51Z
2022-01-14T07:50:24Z,42.805,6.029,13.2999,4.60025,2470.39,2022-1-14T09:51:55Z
2022-01-14T07:53:27Z,42.805,6.029,13.2999,4.60025,2470.39,2022-1-14T09:54:58Z
2022-01-14T07:56:30Z,42.805,6.029,13.2999,4.60026,2470.404,2022-1-14T09:58:01Z
2022-01-14T07:59:33Z,42.805,6.029,13.2998,4.60027,2470.366,2022-1-14T10:01:04Z
2022-01-14T08:02:36Z,42.805,6.029,13.3002,4.60026,2470.38,2022-1-14T10:04:07Z
2022-01-14T08:05:39Z,42.805,6.029,13.3004,4.60026,2470.413,2022-1-14T10:07:10Z
2022-01-14T08:08:42Z,42.805,6.029,13.3002,4.60026,2470.39,2022-1-14T10:10:13Z
2022-01-14T08:11:46Z,42.805,6.029,13.3000,4.60027,2470.39,2022-1-14T10:13:16Z
2022-01-14T08:14:49Z,42.805,6.029,13.3001,4.60026,2470.413,2022-1-14T10:16:20Z
2022-01-14T08:17:52Z,42.805,6.029,13.3004,4.60028,2470.376,2022-1-14T10:19:23Z
2022-01-14T08:20:55Z,42.805,6.029,13.3003,4.60026,2470.404,2022-1-14T10:22:26Z
2022-01-14T08:23:58Z,42.805,6.029,13.3000,4.60026,2470.38,2022-1-14T10:25:29Z
2022-01-14T08:27:01Z,42.805,6.029,13.3001,4.60026,2470.366,2022-1-14T10:28:32Z
2022-01-14T08:30:04Z,42.805,6.029,13.3000,4.60025,2470.404,2022-1-14T10:31:35Z
2022-01-14T08:33:07Z,42.805,6.029,13.2998,4.60026,2470.343,2022-1-14T10:34:38Z
2022-01-14T08:36:11Z,42.805,6.029,13.2999,4.60026,2470.404,2022-1-14T10:37:41Z
2022-01-14T08:39:14Z,42.805,6.029,13.3000,4.60026,2470.39,2022-1-14T10:40:45Z
2022-01-14T08:42:17Z,42.805,6.029,13.2998,4.60026,2470.38,2022-1-14T10:43:48Z
2022-01-14T08:45:20Z,42.805,6.029,13.3001,4.60027,2470.38,2022-1-14T10:46:51Z
2022-01-14T08:48:23Z,42.805,6.029,13.3001,4.60026,2470.366,2022-1-14T10:49:54Z
2022-01-14T08:51:26Z,42.805,6.029,13.3002,4.60025,2470.38,2022-1-14T10:52:57Z
2022-01-14T08:54:29Z,42.805,6.029,13.3004,4.60026,2470.366,2022-1-14T10:56:00Z
2022-01-14T08:57:32Z,42.805,6.029,13.2998,4.60027,2470.366,2022-1-14T10:59:03Z
2022-01-14T09:00:36Z,42.805,6.029,13.3002,4.60025,2470.38,2022-1-14T11:02:07Z
2022-01-14T09:03:39Z,42.805,6.029,13.2999,4.60025,2470.343,2022-1-14T11:05:10Z
2022-01-14T09:06:42Z,42.805,6.029,13.3001,4.60025,2470.343,2022-1-14T11:08:13Z
2022-01-14T09:09:45Z,42.805,6.029,13.3004,4.60025,2470.366,2022-1-14T11:11:16Z
2022-01-14T09:12:48Z,42.805,6.029,13.3000,4.60025,2470.343,2022-1-14T11:14:19Z
2022-01-14T09:15:51Z,42.805,6.029,13.3003,4.60026,2470.343,2022-1-14T11:17:22Z
2022-01-14T09:18:54Z,42.805,6.029,13.3000,4.60025,2470.38,2022-1-14T11:20:25Z
2022-01-14T09:21:58Z,42.805,6.029,13.2998,4.60026,2470.366,2022-1-14T11:23:28Z
2022-01-14T09:25:01Z,42.805,6.029,13.3000,4.60026,2470.357,2022-1-14T11:26:32Z
2022-01-14T09:28:04Z,42.805,6.029,13.3001,4.60026,2470.343,2022-1-14T11:29:35Z
2022-01-14T09:31:07Z,42.805,6.029,13.2997,4.60025,2470.343,2022-1-14T11:32:38Z
2022-01-14T09:34:10Z,42.805,6.029,13.2999,4.60025,2470.38,2022-1-14T11:35:41Z
2022-01-14T09:37:13Z,42.805,6.029,13.3000,4.60025,2470.357,2022-1-14T11:38:44Z
2022-01-14T09:40:16Z,42.805,6.029,13.3000,4.60025,2470.343,2022-1-14T11:41:47Z
2022-01-14T09:43:19Z,42.805,6.029,13.2999,4.60026,2470.38,2022-1-14T11:44:50Z
2022-01-14T09:46:23Z,42.805,6.029,13.3000,4.60025,2470.343,2022-1-14T11:47:53Z
2022-01-14T09:49:26Z,42.805,6.029,13.2998,4.60026,2470.343,2022-1-14T11:50:57Z
2022-01-14T09:52:29Z,42.805,6.029,13.2999,4.60024,2470.343,2022-1-14T11:54:00Z
2022-01-14T09:55:32Z,42.805,6.029,13.2999,4.60026,2470.343,2022-1-14T11:57:03Z
2022-01-14T09:58:35Z,42.805,6.029,13.3000,4.60025,2470.366,2022-1-14T12:00:06Z
2022-01-14T10:01:38Z,42.805,6.029,13.3002,4.60025,2470.32,2022-1-14T12:03:09Z
2022-01-14T10:04:41Z,42.805,6.029,13.3001,4.60024,2470.297,2022-1-14T12:06:12Z
2022-01-14T10:07:44Z,42.805,6.029,13.3000,4.60026,2470.32,2022-1-14T12:09:15Z
2022-01-14T10:10:48Z,42.805,6.029,13.3003,4.60026,2470.343,2022-1-14T12:12:18Z
2022-01-14T10:13:51Z,42.805,6.029,13.3001,4.60024,2470.334,2022-1-14T12:15:22Z
2022-01-14T10:16:54Z,42.805,6.029,13.2996,4.60026,2470.32,2022-1-14T12:18:25Z
2022-01-14T10:19:57Z,42.805,6.029,13.2999,4.60025,2470.334,2022-1-14T12:21:28Z
2022-01-14T10:23:00Z,42.805,6.029,13.3000,4.60024,2470.32,2022-1-14T12:24:31Z
2022-01-14T10:26:03Z,42.805,6.029,13.2997,4.60025,2470.31,2022-1-14T12:27:34Z
2022-01-14T10:29:06Z,42.805,6.029,13.3000,4.60025,2470.32,2022-1-14T12:30:37Z
2022-01-14T10:32:09Z,42.805,6.029,13.2998,4.60024,2470.334,2022-1-14T12:33:40Z
2022-01-14T10:35:13Z,42.805,6.029,13.3003,4.60024,2470.334,2022-1-14T12:36:43Z
2022-01-14T10:38:16Z,42.805,6.029,13.3000,4.60024,2470.297,2022-1-14T12:39:47Z
2022-01-14T10:41:19Z,42.805,6.029,13.3001,4.60024,2470.32,2022-1-14T12:42:50Z
2022-01-14T10:44:22Z,42.805,6.029,13.2998,4.60026,2470.297,2022-1-14T12:45:53Z
2022-01-14T10:47:25Z,42.805,6.029,13.2997,4.60024,2470.297,2022-1-14T12:48:56Z
2022-01-14T10:50:28Z,42.805,6.029,13.2998,4.60026,2470.32,2022-1-14T12:51:59Z
2022-01-14T10:53:31Z,42.805,6.029,13.2998,4.60025,2470.31,2022-1-14T12:55:02Z
2022-01-14T10:56:34Z,42.805,6.029,13.3000,4.60026,2470.32,2022-1-14T12:58:05Z
2022-01-14T10:59:38Z,42.805,6.029,13.2998,4.60024,2470.297,2022-1-14T13:01:09Z
2022-01-14T11:02:41Z,42.805,6.029,13.2995,4.60024,2470.273,2022-1-14T13:04:12Z
2022-01-14T11:05:44Z,42.805,6.029,13.2997,4.60026,2470.297,2022-1-14T13:07:15Z
2022-01-14T11:08:47Z,42.805,6.029,13.2997,4.60024,2470.273,2022-1-14T13:10:18Z
2022-01-14T11:11:50Z,42.805,6.029,13.2999,4.60023,2470.273,2022-1-14T13:13:21Z
2022-01-14T11:14:53Z,42.805,6.029,13.3000,4.60025,2470.287,2022-1-14T13:16:24Z
2022-01-14T11:17:56Z,42.805,6.029,13.3001,4.60024,2470.25,2022-1-14T13:19:27Z
2022-01-14T11:21:00Z,42.805,6.029,13.2996,4.60025,2470.287,2022-1-14T13:22:30Z
2022-01-14T11:24:03Z,42.805,6.029,13.3000,4.60026,2470.287,2022-1-14T13:25:34Z
2022-01-14T11:27:06Z,42.805,6.029,13.2993,4.60024,2470.227,2022-1-14T13:28:37Z
2022-01-14T11:30:09Z,42.805,6.029,13.3000,4.60024,2470.287,2022-1-14T13:31:40Z
2022-01-14T11:33:12Z,42.805,6.029,13.3000,4.60025,2470.273,2022-1-14T13:34:43Z
2022-01-14T11:36:15Z,42.805,6.029,13.2999,4.60024,2470.227,2022-1-14T13:37:46Z
2022-01-14T11:39:18Z,42.805,6.029,13.2998,4.60023,2470.25,2022-1-14T13:40:49Z
2022-01-14T11:42:21Z,42.805,6.029,13.2998,4.60022,2470.264,2022-1-14T13:43:52Z
2022-01-14T11:45:25Z,42.805,6.029,13.2997,4.60022,2470.264,2022-1-14T13:46:55Z
2022-01-14T11:48:28Z,42.805,6.029,13.2999,4.60023,2470.227,2022-1-14T13:49:59Z
2022-01-14T11:51:31Z,42.805,6.029,13.2997,4.60023,2470.227,2022-1-14T13:53:02Z
2022-01-14T11:54:34Z,42.805,6.029,13.2998,4.60023,2470.227,2022-1-14T13:56:05Z
2022-01-14T11:57:37Z,42.805,6.029,13.2998,4.60022,2470.227,2022-1-14T13:59:08Z
2022-01-14T12:00:40Z,42.805,6.029,13.2999,4.60024,2470.25,2022-1-14T14:02:11Z
2022-01-14T12:03:43Z,42.805,6.029,13.3004,4.60024,2470.25,2022-1-14T14:05:14Z
2022-01-14T12:06:46Z,42.805,6.029,13.3000,4.60023,2470.25,2022-1-14T14:08:17Z
2022-01-14T12:09:50Z,42.805,6.029,13.2998,4.60023,2470.25,2022-1-14T14:11:20Z
2022-01-14T12:12:53Z,42.805,6.029,13.2998,4.60023,2470.25,2022-1-14T14:14:24Z
2022-01-14T12:15:56Z,42.805,6.029,13.2998,4.60023,2470.287,2022-1-14T14:17:27Z
2022-01-14T12:18:59Z,42.805,6.029,13.2999,4.60024,2470.25,2022-1-14T14:20:30Z
2022-01-14T12:22:02Z,42.805,6.029,13.2998,4.60023,2470.264,2022-1-14T14:23:33Z
2022-01-14T12:25:05Z,42.805,6.029,13.3000,4.60025,2470.227,2022-1-14T14:26:36Z
2022-01-14T12:28:08Z,42.805,6.029,13.2999,4.60024,2470.25,2022-1-14T14:29:39Z
2022-01-14T12:31:11Z,42.805,6.029,13.2996,4.60025,2470.25,2022-1-14T14:32:42Z
2022-01-14T12:34:15Z,42.805,6.029,13.3001,4.60024,2470.203,2022-1-14T14:35:46Z
2022-01-14T12:37:18Z,42.805,6.029,13.2998,4.60024,2470.227,2022-1-14T14:38:49Z
2022-01-14T12:40:21Z,42.805,6.029,13.2998,4.60024,2470.24,2022-1-14T14:41:52Z
2022-01-14T12:43:24Z,42.805,6.029,13.2998,4.60024,2470.25,2022-1-14T14:44:55Z
2022-01-14T12:46:27Z,42.805,6.029,13.2999,4.60025,2470.203,2022-1-14T14:47:58Z
2022-01-14T12:49:30Z,42.805,6.029,13.2998,4.60024,2470.217,2022-1-14T14:51:01Z
2022-01-14T12:52:33Z,42.805,6.029,13.2999,4.60024,2470.203,2022-1-14T14:54:04Z
2022-01-14T12:55:36Z,42.805,6.029,13.3001,4.60024,2470.25,2022-1-14T14:57:07Z
2022-01-14T12:58:40Z,42.805,6.029,13.2997,4.60024,2470.24,2022-1-14T15:00:11Z
2022-01-14T13:01:43Z,42.805,6.029,13.3000,4.60026,2470.24,2022-1-14T15:03:14Z
2022-01-14T13:04:46Z,42.805,6.029,13.2999,4.60023,2470.227,2022-1-14T15:06:17Z
2022-01-14T13:07:49Z,42.805,6.029,13.2998,4.60025,2470.203,2022-1-14T15:09:20Z
2022-01-14T13:10:52Z,42.805,6.029,13.3000,4.60023,2470.24,2022-1-14T15:12:23Z
2022-01-14T13:13:55Z,42.805,6.029,13.2998,4.60024,2470.227,2022-1-14T15:15:26Z
2022-01-14T13:16:58Z,42.805,6.029,13.2998,4.60024,2470.24,2022-1-14T15:18:29Z
2022-01-14T13:20:01Z,42.805,6.029,13.2999,4.60023,2470.24,2022-1-14T15:21:32Z
2022-01-14T13:23:05Z,42.805,6.029,13.2997,4.60024,2470.203,2022-1-14T15:24:36Z
2022-01-14T13:26:08Z,42.805,6.029,13.3002,4.60023,2470.227,2022-1-14T15:27:39Z
2022-01-14T13:29:11Z,42.805,6.029,13.2998,4.60023,2470.203,2022-1-14T15:30:42Z
2022-01-14T13:32:14Z,42.805,6.029,13.2998,4.60023,2470.227,2022-1-14T15:33:45Z
2022-01-14T13:35:17Z,42.805,6.029,13.2997,4.60024,2470.203,2022-1-14T15:36:48Z
2022-01-14T13:38:20Z,42.805,6.029,13.2996,4.60022,2470.203,2022-1-14T15:39:51Z
2022-01-14T13:41:23Z,42.805,6.029,13.2998,4.60024,2470.227,2022-1-14T15:42:54Z
2022-01-14T13:44:27Z,42.805,6.029,13.2996,4.60025,2470.264,2022-1-14T15:45:57Z
2022-01-14T13:47:30Z,42.805,6.029,13.3000,4.60025,2470.24,2022-1-14T15:49:01Z
2022-01-14T13:50:33Z,42.805,6.029,13.3000,4.60024,2470.217,2022-1-14T15:52:04Z
2022-01-14T13:53:36Z,42.805,6.029,13.3000,4.60024,2470.227,2022-1-14T15:55:07Z
2022-01-14T13:56:39Z,42.805,6.029,13.3004,4.60024,2470.227,2022-1-14T15:58:10Z
2022-01-14T13:59:42Z,42.805,6.029,13.2998,4.60025,2470.227,2022-1-14T16:01:13Z
2022-01-14T14:02:45Z,42.805,6.029,13.2998,4.60024,2470.18,2022-1-14T16:04:16Z
2022-01-14T14:05:48Z,42.805,6.029,13.3000,4.60022,2470.217,2022-1-14T16:07:19Z
2022-01-14T14:08:52Z,42.805,6.029,13.2998,4.60023,2470.203,2022-1-14T16:10:22Z
2022-01-14T14:11:55Z,42.805,6.029,13.2997,4.60022,2470.227,2022-1-14T16:13:26Z
2022-01-14T14:14:58Z,42.805,6.029,13.3000,4.60024,2470.203,2022-1-14T16:16:29Z
2022-01-14T14:18:01Z,42.805,6.029,13.3000,4.60023,2470.227,2022-1-14T16:19:32Z
2022-01-14T14:21:04Z,42.805,6.029,13.3001,4.60023,2470.227,2022-1-14T16:22:35Z
2022-01-14T14:24:07Z,42.805,6.029,13.2998,4.60024,2470.227,2022-1-14T16:25:38Z
2022-01-14T14:27:10Z,42.805,6.029,13.2998,4.60024,2470.264,2022-1-14T16:28:41Z
2022-01-14T14:30:13Z,42.805,6.029,13.2998,4.60024,2470.227,2022-1-14T16:31:44Z
2022-01-14T14:33:17Z,42.805,6.029,13.2996,4.60023,2470.227,2022-1-14T16:34:48Z
2022-01-14T14:36:20Z,42.805,6.029,13.2998,4.60024,2470.264,2022-1-14T16:37:51Z
2022-01-14T14:39:23Z,42.805,6.029,13.2997,4.60024,2470.227,2022-1-14T16:40:54Z
2022-01-14T14:42:26Z,42.805,6.029,13.2999,4.60023,2470.25,2022-1-14T16:43:57Z
2022-01-14T14:45:29Z,42.805,6.029,13.2996,4.60024,2470.227,2022-1-14T16:47:00Z
2022-01-14T14:48:32Z,42.805,6.029,13.3000,4.60024,2470.227,2022-1-14T16:50:03Z
2022-01-14T14:51:35Z,42.805,6.029,13.3000,4.60023,2470.24,2022-1-14T16:53:06Z
2022-01-14T14:54:38Z,42.805,6.029,13.2999,4.60024,2470.227,2022-1-14T16:56:09Z
2022-01-14T14:57:42Z,42.805,6.029,13.2998,4.60023,2470.227,2022-1-14T16:59:13Z
2022-01-14T15:00:45Z,42.805,6.029,13.2998,4.60024,2470.25,2022-1-14T17:02:16Z
2022-01-14T15:03:48Z,42.805,6.029,13.2997,4.60024,2470.25,2022-1-14T17:05:19Z
2022-01-14T15:06:51Z,42.805,6.029,13.3005,4.60024,2470.203,2022-1-14T17:08:22Z
2022-01-14T15:09:54Z,42.805,6.029,13.3000,4.60023,2470.203,2022-1-14T17:11:25Z
2022-01-14T15:12:57Z,42.805,6.029,13.2999,4.60025,2470.227,2022-1-14T17:14:28Z